Regional Weather Roundup
Issued by NWS

Home | Current Version | Previous Version | Text Only | Print | Product List | Glossary On
Versions: 1 2 3 4 5 6 7 8 9 10 11 12 13 14 15 16 17 18 19 20 21 22 23 24 25 26 27 28 29 30 31 32 33 34 35 36 37 38 39 40 41 42 43 44 45 46 47 48 49 50
000
ASUS44 KJAN 201510
RWRMS

MISSISSIPPI HOURLY WEATHER ROUNDUP
NATIONAL WEATHER SERVICE JACKSON MS
900 AM CST SAT DEC 20 2014

NOTE: "FAIR: INDICATES FEW OR NO CLOUDS BELOW 12,000 FEET WITH NO
SIGNIFICANT WEATHER AND/OR OBSTRUCTIONS TO VISIBILITY.

MSZ001>002-007>008-010>013-018>021-025>028-034>036-201600-
NORTHWEST MISSISSIPPI

CITY           SKY/WX    TMP DP  RH WIND       PRES   REMARKS
CLARKSDALE     PTSUNNY   39  36  87 NE6       30.28F WCI  35
CLEVELAND      FAIR      41  38  87 E9        30.27S
GREENWOOD      SUNNY     42  37  82 NE8       30.27R
GREENVILLE     SUNNY     42  36  79 NE8       30.26S
GRENADA        FAIR      41  34  75 CALM      30.28S
OLIVE BRANCH   PTSUNNY   37  36  93 E5        30.28R WCI  34
OXFORD         FAIR      37  32  81 E6        30.29S WCI  33
TUNICA         CLOUDY    39  34  81 E7        30.29S WCI  34
$$

MSZ003>006-009-014>017-022>024-029>033-037>039-201600-
NORTHEAST MISSISSIPPI

CITY           SKY/WX    TMP DP  RH WIND       PRES   REMARKS
COLUMBUS AFB   SUNNY     41  35  81 NE7       30.27R
CORINTH        FAIR      39  32  75 NE6       30.27S WCI  35
GOLDN TRIANGLE SUNNY     43  36  75 N7        30.26R
STARKVILLE     FAIR      39  36  87 N3        30.27R
TUPELO         SUNNY     39  32  76 E6        30.28R WCI  35
$$

MSZ040-058-201600-
CENTRAL MISSISSIPPI

CITY           SKY/WX    TMP DP  RH WIND       PRES   REMARKS
JACKSON INTL   CLOUDY    45  42  89 NE7       30.23R
JACKSON HAWKNS CLOUDY    44  40  85 NE8       30.23R
MERIDIAN KEY   CLOUDY    43  39  86 NE8       30.23R
MERIDIAN NAS   CLOUDY    43  40  89 N6        30.24R FOG
RAYMOND        FAIR      46  41  81 NE6       30.24R
VICKSBURG      CLOUDY    45  41  86 NE8       30.25R FOG
$$

MSZ059>079-201600-
SOUTH MISSISSIPPI

CITY           SKY/WX    TMP DP  RH WIND       PRES   REMARKS
HATTIESBURG    CLOUDY    47  44  90 N9        30.20R
MCCOMB         CLOUDY    45  43  93 NE8       30.19R
NATCHEZ        CLOUDY    46  43  87 NE8       30.22R
PINE BELT      CLOUDY    45  41  87 N7        30.21R
$$

MSZ080>082-201600-
COASTAL MISSISSIPPI

CITY           SKY/WX    TMP DP  RH WIND       PRES   REMARKS
BILOXI         CLOUDY    49  49 100 NE13      30.14R
PASCAGOULA     CLOUDY    48  46  93 N9        30.15R FOG
GULFPORT       CLOUDY    49  46  90 N12       30.14R
$$



USA.gov is the U.S. government's official web portal to all federal, state and local government web resources and services.